Location: Morlupo
(42.1333°N, 12.5000°E)
Time: 15:41:48
(UTC+00:00)

Resurs 01 Rocket - Pass Details

Date: 18 September 2020
Orbit: 633 x 645 km, 98.0° (Epoch: 25 October)

Event Time Altitude Azimuth Distance (km) Brightness Sun altitude
Exits shadow 20:56:50 14° 297° (WNW) 1,769 4.5 -37.9°
Drops below altitude 10° 20:58:02 10° 311° (NW) 2,049 4.9 -38.0°
Sets 21:00:54 0° 330° (NNW) 2,963 5.9 -38.4°
